Location: ?
(35.4064°N, 139.3593°E)
Time: 15:11:01
(UTC+00:00)

ACS3 Solar Sail - Pass Details

Date: 25 June 2024
Orbit: 993 x 1023 km, 97.4° (Epoch: 19 July)

Event Time Altitude Azimuth Distance (km) Brightness Sun altitude
Exits shadow 12:27:58 38° 182° (S) 1,477 5.3 -22.8°
Maximum altitude 12:30:31 75° 259° (W) 1,033 4.9 -23.1°
Drops below altitude 10° 12:36:44 10° 345° (NNW) 2,763 8.2 -23.8°
Sets 12:39:14 0° 347° (NNW) 3,715 9.0 -24.1°
